�ϑ��N����,2023/09/27,,,
�ϑ���,�Γc�W���N,,,
�ϑ��n�_,A16,,,
���x�v�ԍ�,A033,,,
,,,,
����,�C��,����,����,���l
09:30:00,-999,-999,,
09:31:00,-999,-999,,
09:32:00,-999,-999,,
09:33:00,-999,-999,,
09:34:00,-999,-999,,
09:35:00,-999,-999,,
09:36:00,-999,-999,,
09:37:00,-999,-999,,
09:38:00,-999,-999,,
09:39:00,-999,-999,,
09:40:00,-999,-999,,
09:41:00,-999,-999,,
09:42:00,-999,-999,,
09:43:00,-999,-999,,
09:44:00,-999,-999,,
09:45:00,-999,-999,,
09:46:00,-999,-999,,
09:47:00,-999,-999,,
09:48:00,-999,-999,,
09:49:00,-999,-999,,
09:50:00,-999,-999,,
09:51:00,-999,-999,,
09:52:00,-999,-999,,
09:53:00,-999,-999,,
09:54:00,-999,-999,,
09:55:00,-999,-999,,
09:56:00,33,8,,
09:57:00,32.9,8,,
09:58:00,32.3,8,,
09:59:00,31.4,7,,�܂���
10:00:00,31.1,8,,���������Ă���
10:01:00,30.9,8,,
10:02:00,31.1,8,,
10:03:00,31.1,7,,
10:04:00,30.8,8,,
10:05:00,30.6,8,,
10:06:00,30.8,7,,
10:07:00,31.2,8,,����Ă���
10:08:00,31.8,7,,
10:09:00,31.7,7,,
10:10:00,31,6,,
10:11:00,31.3,7,,
10:12:00,31.8,6,,
10:13:00,31.9,6,,
10:14:00,32.4,6,,
10:15:00,32,7,,
10:16:00,32,6,,
10:17:00,31.5,7,,�܂��Ă���
10:18:00,31.2,7,,
10:19:00,31.3,6,,
10:20:00,31.9,6,,����Ă���
10:21:00,32.8,6,,
10:22:00,32.4,6,,
10:23:00,32.4,4,,
10:24:00,32,1,,
10:25:00,32.5,8,,
10:26:00,32.9,7,,
10:27:00,32.3,7,,�܂���
10:28:00,31.9,7,,
10:29:00,32,7,,
10:30:00,31.8,7,,
10:31:00,31.9,6,,
10:32:00,32.4,7,,
10:33:00,32.1,7,,
10:34:00,32,7,,
10:35:00,32.2,6,,
10:36:00,32.2,4,,���������ς���ĕ��ʂ�������
10:37:00,32.4,4,,
10:38:00,32.3,4,,
10:39:00,32.4,3,,
10:40:00,32.2,5,,
10:41:00,32.4,5,,
10:42:00,32.1,5,,
10:43:00,31.9,6,,�܂���
10:44:00,31.5,5,,
10:45:00,31.9,6,,
10:46:00,32.4,6,,����Ă���
10:47:00,32.9,6,,
10:48:00,32.3,6,,
10:49:00,32.9,7,,
10:50:00,32.1,6,,
10:51:00,31.9,6,,
10:52:00,32.1,6,,
10:53:00,32.2,8,,
10:54:00,32.5,7,,
10:55:00,32.8,8,,
10:56:00,32.4,8,,
10:57:00,32.4,7,,
10:58:00,32.2,7,,
10:59:00,32.1,8,,
11:00:00,32,7,,
11:01:00,31.9,7,,
11:02:00,32.4,7,,
11:03:00,32.3,7,,
11:04:00,32.2,7,,
11:05:00,32.4,7,,
11:06:00,32.5,7,,
11:07:00,32.4,7,,
11:08:00,32.5,7,,
11:09:00,32.1,4,,
11:10:00,32.4,8,,
11:11:00,32.5,4,,
11:12:00,32.4,8,,
11:13:00,32.2,8,,
11:14:00,32,8,,
11:15:00,31.8,8,,�撣���ċ���
11:16:00,31.8,8,,
11:17:00,31.7,8,,
11:18:00,32.1,8,,
11:19:00,32.1,8,,
11:20:00,32.1,8,,
11:21:00,32,7,,
11:22:00,32,7,,
11:23:00,31.4,8,,
11:24:00,31.2,8,,
11:25:00,31.8,8,,
11:26:00,32.8,8,,���̂������T�{�����A����Ă���
11:27:00,32.8,8,,
11:28:00,33.5,8,,
11:29:00,33.6,8,,
11:30:00,33.8,8,,